Flag for U.S.A. Weather past 2 weeks in Seattle, Washington, U.S.A.

Now
83 °F

Sunny.


Feels Like: 81 °F
Forecast: 67 / 88 °F
Wind: 8 mph from Northwest

Location: Seattle Boeing Field

Current Time: Jul 5, 2015 at 12:50:17 PM

Latest Report: Jul 5, 2015 at 11:53 AM


Visibility: 10 mi

Pressure: 29.83 "Hg

Humidity: 31%

Dew point: 49 °F

Location of SeattleLocation

Historic Weather in Seattle — Graph

°F

Seattle temperature yesterday

Maximum temperature yesterday: 92 °F (at 4:53 PM)
Minimum temperature yesterday: 63 °F (at 5:53 AM)
Average temperature yesterday: 79 °F

Past Weeks' High & Low Weather Summary

 TemperatureHumidityPressure
High92 °F (Jun 27, 4:53 PM)81% (Jun 30, 3:53 AM)30.16 "Hg (Jun 30, 3:53 AM)
Low56 °F (Jun 23, 5:53 AM)15% (Jul 4, 3:53 PM)29.75 "Hg (Jul 4, 6:53 PM)
Average75 °F47%29.99 "Hg
* Reported Jun 20 10:53 AM — Jul 5 10:53 AM, Seattle, Weather by CustomWeather, © 2015

Note: Actual official high and low records may vary slightly from our data, if they occured in-between our weather recording intervals... More about our weather records

Advertising

Seattle weather history for previous 24 hours

 ConditionsComfort  
Time TempWeatherWind HumidityBarometerVisibility
10:53 AM
Sun, Jul 5
80 °FSunny.5 mph35%29.83 "Hg10 mi
9:53 AM75 °FSunny.5 mph47%29.84 "Hg10 mi
8:53 AM74 °FSunny.5 mph50%29.83 "Hg8 mi
7:53 AM71 °FSunny.No wind55%29.83 "Hg7 mi
6:53 AM68 °FSunny.No wind59%29.82 "Hg10 mi
5:53 AM67 °FClear.No wind61%29.81 "Hg7 mi
4:53 AM68 °FClear.No wind59%29.80 "Hg9 mi
3:53 AM69 °FClear.No wind57%29.79 "Hg10 mi
2:53 AM71 °FClear.No wind49%29.79 "Hg10 mi
1:53 AM73 °FClear.3 mph46%29.79 "Hg10 mi
12:53 AM73 °FClear.No wind43%29.78 "Hg10 mi
11:53 PM
Sat, Jul 4
76 °FClear.No wind37%29.77 "Hg10 mi
10:53 PM79 °FClear.No wind31%29.77 "Hg10 mi
9:53 PM81 °FSunny.3 mph27%29.77 "Hg10 mi
8:53 PM85 °FScattered clouds.No wind23%29.75 "Hg10 mi
7:53 PM89 °FSunny.No wind19%29.76 "Hg10 mi
6:53 PM91 °FPassing clouds.8 mph17%29.75 "Hg10 mi
5:53 PM91 °FSunny.9 mph16%29.76 "Hg10 mi
4:53 PM92 °FSunny.9 mph16%29.77 "Hg10 mi
3:53 PM89 °FSunny.10 mph15%29.80 "Hg10 mi
2:53 PM89 °FSunny.9 mph20%29.81 "Hg10 mi
1:53 PM88 °FSunny.3 mph22%29.83 "Hg10 mi
12:53 PM86 °FSunny.5 mph25%29.84 "Hg10 mi
Weather by CustomWeather, © 2015

See weather overviewHow to use our weather pages